Location: �chenoz-la-M�line
(47.6009°N, 6.1354°E)
Time: 07:14:23
(UTC+00:00)

Cosmos 2360 Rocket - Visible Passes

Search period start: 09 May 2021 00:00
Search period end: 19 May 2021 00:00
Orbit: 833 x 845 km, 71.0° (Epoch: 08 May)

Date Brightness Start Highest point End Pass type
(mag) Time Alt. Az. Time Alt. Az. Time Alt. Az.
14 May 4.0 03:13:31 10° SSE 03:18:18 29° ESE 03:23:07 10° NE visible
15 May 4.1 02:57:53 10° SSE 03:02:35 27° ESE 03:07:17 10° NE visible
16 May 4.1 02:42:17 10° SSE 02:46:51 26° ESE 02:51:26 10° NE visible
17 May 4.1 02:26:41 10° SSE 02:31:08 24° ESE 02:35:35 10° NE visible
18 May 4.2 02:11:06 10° SSE 02:15:25 23° E 02:19:45 10° NE visible
